This is the latest recevied weather packets stored in our database for station/object KE5VT. If no packets are shown the sender has not sent any weather packets the latest 10 day(s).
| Time | Temp. | Humidity | Pressure | Rain* | Wind** | Luminosity | Snow |
|---|---|---|---|---|---|---|---|
| 1777765801 | 13.33° C | 70% | 1008.5 hPa | 0 mm | - | 8 W/m² | - |
| 1777765497 | 13.33° C | 70% | 1008.5 hPa | 0 mm | - | 10 W/m² | - |
| 1777765195 | 13.33° C | 70% | 1008.6 hPa | 0 mm | - | 12 W/m² | - |
| 1777764890 | 13.89° C | 69% | 1008.3 hPa | 0 mm | - | 15 W/m² | - |
| 1777764587 | 13.89° C | 70% | 1008.4 hPa | 0 mm | - | 18 W/m² | - |
| 1777764283 | 13.89° C | 69% | 1008.5 hPa | 0 mm | - | 19 W/m² | - |
| 1777763980 | 13.89° C | 69% | 1008.3 hPa | 0 mm | - | 21 W/m² | - |
| 1777763678 | 13.89° C | 68% | 1008.3 hPa | 0 mm | - | 22 W/m² | - |
| 1777763376 | 13.89° C | 69% | 1008.4 hPa | 0 mm | - | 24 W/m² | - |
| 1777763074 | 13.89° C | 67% | 1008.2 hPa | 0 mm | - | 25 W/m² | - |
| 1777762771 | 14.44° C | 69% | 1008.5 hPa | 0 mm | - | 27 W/m² | - |
| 1777762467 | 14.44° C | 68% | 1008.3 hPa | 0 mm | - | 31 W/m² | - |
| 1777762164 | 14.44° C | 68% | 1008.5 hPa | 0 mm | - | 33 W/m² | - |
| 1777761860 | 15° C | 68% | 1008.6 hPa | 0 mm | - | 33 W/m² | - |
| 1777761557 | 15° C | 66% | 1008.4 hPa | 0 mm | - | 38 W/m² | - |
| 1777761255 | 16.11° C | 64% | 1008.5 hPa | 0 mm | - | 127 W/m² | - |
| 1777760953 | 15.56° C | 65% | 1008.2 hPa | 0 mm | - | 157 W/m² | - |
| 1777760651 | 15.56° C | 65% | 1008.4 hPa | 0 mm | - | 180 W/m² | - |
| 1777760351 | 15.56° C | 65% | 1008.4 hPa | 0 mm | - | 224 W/m² | - |
| 1777760048 | 15° C | 68% | 1008.2 hPa | 0 mm | - | 253 W/m² | - |
| 1777759745 | 15° C | 70% | 1008.3 hPa | 0 mm | - | 119 W/m² | - |
| 1777759441 | 15° C | 70% | 1008.1 hPa | 0 mm | - | 101 W/m² | - |
| 1777759137 | 15° C | 67% | 1008.1 hPa | 0 mm | - | 113 W/m² | - |
| 1777758835 | 15° C | 68% | 1008.1 hPa | 0 mm | - | 234 W/m² | - |
| 1777758531 | 15° C | 67% | 1008.3 hPa | 0 mm | - | 272 W/m² | - |
* Rain latest hour (hover to see other rain measurements)
** Current wind speed in m/s (hover to see current wind gust speed)